TimeMST,TemperatureF,Dew PointF,Humidity,Sea Level PressureIn,VisibilityMPH,Wind Direction,Wind SpeedMPH,Gust SpeedMPH,PrecipitationIn,Events,Conditions,WindDirDegrees,DateUTC
12:55 AM,35.2,22.1,59,29.78,10.0,SW,10.4,-,N/A,,Clear,230,2013-02-17 07:55:00
1:55 AM,32.9,21.4,63,29.75,10.0,Calm,Calm,-,N/A,,Clear,0,2013-02-17 08:55:00
2:55 AM,32.5,21.0,63,29.72,10.0,SW,4.6,-,N/A,,Clear,230,2013-02-17 09:55:00
3:55 AM,29.7,21.0,70,29.70,10.0,WSW,8.1,-,N/A,,Clear,240,2013-02-17 10:55:00
4:55 AM,28.9,20.8,72,29.68,10.0,WSW,8.1,-,N/A,,Clear,250,2013-02-17 11:55:00
5:55 AM,30.6,20.8,67,29.65,10.0,West,6.9,-,N/A,,Clear,260,2013-02-17 12:55:00
6:55 AM,29.5,20.3,69,29.63,10.0,West,5.8,-,N/A,,Clear,280,2013-02-17 13:55:00
7:55 AM,34.3,22.3,61,29.62,10.0,Calm,Calm,-,N/A,,Clear,0,2013-02-17 14:55:00
8:55 AM,41.4,22.6,47,29.60,10.0,West,6.9,-,N/A,,Partly Cloudy,270,2013-02-17 15:55:00
9:55 AM,47.5,21.0,35,29.56,10.0,West,5.8,-,N/A,,Clear,260,2013-02-17 16:55:00
10:55 AM,49.3,25.2,39,29.55,10.0,North,10.4,-,N/A,,Clear,10,2013-02-17 17:55:00
11:55 AM,51.8,22.5,32,29.53,10.0,North,21.9,-,N/A,,Clear,350,2013-02-17 18:55:00
12:55 PM,53.6,21.4,28,29.51,10.0,NNW,25.3,35.7,N/A,,Clear,340,2013-02-17 19:55:00
1:55 PM,50.7,26.6,39,29.53,10.0,NNW,32.2,38.0,N/A,,Clear,340,2013-02-17 20:55:00
2:55 PM,44.6,28.6,53,29.58,10.0,NNW,36.8,44.9,N/A,,Overcast,340,2013-02-17 21:55:00
3:55 PM,41.5,27.5,57,29.62,10.0,NW,39.1,47.2,N/A,,Scattered Clouds,320,2013-02-17 22:55:00
4:55 PM,39.9,23.4,52,29.68,10.0,NW,21.9,32.2,N/A,,Clear,310,2013-02-17 23:55:00
5:55 PM,36.9,23.0,57,29.71,10.0,WNW,16.1,-,N/A,,Scattered Clouds,300,2013-02-18 00:55:00
6:55 PM,34.7,26.6,72,29.75,10.0,NW,21.9,-,N/A,,Mostly Cloudy,310,2013-02-18 01:55:00
7:55 PM,34.0,25.5,71,29.75,10.0,NNW,16.1,-,N/A,,Partly Cloudy,340,2013-02-18 02:55:00
8:55 PM,32.9,25.3,74,29.76,10.0,NNW,18.4,28.8,N/A,,Clear,330,2013-02-18 03:55:00
9:55 PM,32.0,25.0,75,29.76,10.0,NNW,19.6,25.3,N/A,,Clear,330,2013-02-18 04:55:00
10:34 PM,32.0,24.8,75,29.76,10.0,NW,24.2,31.1,N/A,Rain,Light Rain,320,2013-02-18 05:34:00
10:44 PM,32.0,26.6,80,29.78,10.0,NW,20.7,29.9,N/A,,Scattered Clouds,320,2013-02-18 05:44:00
10:55 PM,31.8,24.8,75,29.78,10.0,NW,26.5,33.4,0.00,,Partly Cloudy,320,2013-02-18 05:55:00
11:55 PM,32.9,23.4,68,29.76,10.0,NNW,32.2,43.7,N/A,,Mostly Cloudy,330,2013-02-18 06:55:00